Location: Paimpol
(48.7798°N, 3.0488°W)
Time: 19:45:35
(UTC+02:00)

ISS - Visible Passes

Search period start: 22 June 2021 00:00
Search period end: 02 July 2021 00:00
Orbit: 417 x 422 km, 51.6° (Epoch: 22 June)

Date Brightness Start Highest point End Pass type
(mag) Time Alt. Az. Time Alt. Az. Time Alt. Az.
28 Jun -1.2 05:02:10 10° SSE 05:03:27 12° SE 05:04:43 10° ESE visible
30 Jun -2.3 05:02:20 12° SSW 05:04:54 26° SE 05:07:48 10° E visible
01 Jul -1.9 04:16:32 16° SSE 04:17:36 18° SE 04:19:58 10° E visible
